,,PA_Meas_PMT16A,,PR_Meas_QMR101_102,,RH_Meas_QMH101,,SR_Meas_QMS101,,TA_Meas_QMH101,,GenWind,,GenWind,
time,status,PA,status,PR,status,RH,status,SR,status,TA,status,DirAvg,status,SpdAvg,
2012-04-06, 00:00:04,VALID,920.088,VALID,0,VALID,96.0398,VALID,0.107441,VALID,20.3823,VALID,350,VALID,0.383984,
2012-04-06, 00:01:04,VALID,920.059,VALID,0,VALID,96.0169,VALID,0,VALID,20.4033,VALID,24,VALID,1.65156,
2012-04-06, 00:02:04,VALID,920.077,VALID,0,VALID,96.0627,VALID,0.107441,VALID,20.3823,VALID,38,VALID,0.991797,
2012-04-06, 00:03:04,VALID,920.051,VALID,0,VALID,96.0779,VALID,0,VALID,20.4228,VALID,38,VALID,0.383984,
2012-04-06, 00:04:04,VALID,920.054,VALID,0,VALID,96.0932,VALID,0.107441,VALID,20.4408,VALID,38,VALID,0.0125,
2012-04-06, 00:05:04,VALID,920.093,VALID,0,VALID,96.0398,VALID,0.107441,VALID,20.4603,VALID,38,VALID,0.0210938,
2012-04-06, 00:06:04,VALID,920.07,VALID,0,VALID,95.9636,VALID,0,VALID,20.4798,VALID,358,VALID,0.980469,
2012-04-06, 00:07:04,VALID,920.032,VALID,0,VALID,95.9254,VALID,0.107441,VALID,20.4603,VALID,39,VALID,1.07344,
2012-04-06, 00:08:04,VALID,920.04,VALID,0,VALID,95.8873,VALID,0,VALID,20.4408,VALID,23,VALID,1.4668,
2012-04-06, 00:09:04,VALID,920.024,VALID,0,VALID,95.9178,VALID,0.107441,VALID,20.4408,VALID,7,VALID,1.40352,
2012-04-06, 00:10:04,VALID,920.033,VALID,0,VALID,95.7958,VALID,0,VALID,20.4018,VALID,354,VALID,1.71797,
2012-04-06, 00:11:04,VALID,920.038,VALID,0,VALID,95.7882,VALID,0.107441,VALID,20.3628,VALID,11,VALID,1.44648,
2012-04-06, 00:12:04,VALID,920.039,VALID,0,VALID,95.9026,VALID,0,VALID,20.3433,VALID,21,VALID,0.992578,
2012-04-06, 00:13:04,VALID,920.022,VALID,0,VALID,95.9864,VALID,0.107441,VALID,20.3838,VALID,21,VALID,0.667578,
2012-04-06, 00:14:04,VALID,919.996,VALID,0,VALID,95.9864,VALID,0.107441,VALID,20.3628,VALID,12,VALID,1.73398,
2012-04-06, 00:15:04,VALID,920.007,VALID,0,VALID,95.9788,VALID,0.214882,VALID,20.3823,VALID,30,VALID,1.81055,
2012-04-06, 00:16:04,VALID,919.984,VALID,0,VALID,95.9559,VALID,0.107441,VALID,20.3823,VALID,14,VALID,1.4832,
2012-04-06, 00:17:04,VALID,919.928,VALID,0,VALID,95.773,VALID,0,VALID,20.3238,VALID,2,VALID,1.73164,
2012-04-06, 00:18:04,VALID,919.871,VALID,0,VALID,95.834,VALID,0.107441,VALID,20.3058,VALID,17,VALID,1.66406,
2012-04-06, 00:19:04,VALID,919.842,VALID,0,VALID,95.895,VALID,0.107441,VALID,20.2863,VALID,17,VALID,1.225,
2012-04-06, 00:20:04,VALID,919.794,VALID,0,VALID,95.895,VALID,0,VALID,20.2653,VALID,12,VALID,1.24258,
2012-04-06, 00:21:04,VALID,919.788,VALID,0,VALID,95.8035,VALID,0.107441,VALID,20.2263,VALID,18,VALID,1.67969,
2012-04-06, 00:22:04,VALID,919.73,VALID,0,VALID,95.834,VALID,0.107441,VALID,20.1873,VALID,16,VALID,1.49063,
2012-04-06, 00:23:04,VALID,919.741,VALID,0,VALID,95.9788,VALID,0.107441,VALID,20.1888,VALID,19,VALID,1.66836,
2012-04-06, 00:24:04,VALID,919.733,VALID,0,VALID,96.0169,VALID,0,VALID,20.1693,VALID,20,VALID,1.08867,
2012-04-06, 00:25:04,VALID,919.741,VALID,0,VALID,96.0703,VALID,0,VALID,20.1693,VALID,15,VALID,1.82578,
2012-04-06, 00:26:04,VALID,919.74,VALID,0,VALID,96.0779,VALID,0,VALID,20.1678,VALID,350,VALID,0.963281,
2012-04-06, 00:27:04,VALID,919.747,VALID,0,VALID,96.0855,VALID,0,VALID,20.1693,VALID,21,VALID,1.15859,
2012-04-06, 00:28:04,VALID,919.7,VALID,0,VALID,96.1389,VALID,0,VALID,20.1888,VALID,344,VALID,1.1168,
2012-04-06, 00:29:04,VALID,919.708,VALID,0,VALID,96.177,VALID,0,VALID,20.2083,VALID,22,VALID,1.47617,
2012-04-06, 00:30:04,VALID,919.728,VALID,0,VALID,96.1313,VALID,0,VALID,20.2083,VALID,22,VALID,1.1207,
2012-04-06, 00:31:04,VALID,919.775,VALID,0,VALID,96.116,VALID,0,VALID,20.2278,VALID,22,VALID,0.978906,
2012-04-06, 00:32:04,VALID,919.801,VALID,0,VALID,96.0932,VALID,0,VALID,20.2473,VALID,22,VALID,1.38711,
2012-04-06, 00:33:04,VALID,919.799,VALID,0,VALID,96.0779,VALID,0,VALID,20.2473,VALID,338,VALID,1.82422,
2012-04-06, 00:34:04,VALID,919.791,VALID,0,VALID,96.0779,VALID,0,VALID,20.2278,VALID,32,VALID,1.74531,
2012-04-06, 00:35:04,VALID,919.788,VALID,0,VALID,96.055,VALID,0,VALID,20.2473,VALID,36,VALID,1.10742,
2012-04-06, 00:36:04,VALID,919.775,VALID,0,VALID,96.0779,VALID,0,VALID,20.2668,VALID,20,VALID,1.01484,
2012-04-06, 00:37:04,VALID,919.751,VALID,0,VALID,96.0169,VALID,0,VALID,20.2879,VALID,9,VALID,1.27578,
2012-04-06, 00:38:04,VALID,919.741,VALID,0,VALID,95.9483,VALID,0,VALID,20.2489,VALID,14,VALID,1.53633,
2012-04-06, 00:39:04,VALID,919.725,VALID,0,VALID,95.9102,VALID,0,VALID,20.2489,VALID,12,VALID,0.917188,
2012-04-06, 00:40:04,VALID,919.715,VALID,0,VALID,95.9483,VALID,0,VALID,20.2473,VALID,12,VALID,0.783594,
2012-04-06, 00:41:04,VALID,919.716,VALID,0,VALID,95.9254,VALID,0,VALID,20.2278,VALID,12,VALID,1.18047,
2012-04-06, 00:42:04,VALID,919.685,VALID,0,VALID,95.8873,VALID,0,VALID,20.2278,VALID,12,VALID,0.679297,
2012-04-06, 00:43:04,VALID,919.64,VALID,0,VALID,95.8416,VALID,0,VALID,20.2083,VALID,2,VALID,1.94453,
2012-04-06, 00:44:04,VALID,919.679,VALID,0,VALID,95.8873,VALID,0,VALID,20.1888,VALID,14,VALID,1.32148,
2012-04-06, 00:45:04,VALID,919.663,VALID,0,VALID,95.9636,VALID,0,VALID,20.1693,VALID,14,VALID,1.24453,
2012-04-06, 00:46:04,VALID,919.659,VALID,0,VALID,95.9483,VALID,0,VALID,20.1498,VALID,23,VALID,1.37617,
2012-04-06, 00:47:04,VALID,919.672,VALID,0,VALID,95.9331,VALID,0,VALID,20.1708,VALID,350,VALID,1.35508,
2012-04-06, 00:48:04,VALID,919.662,VALID,0,VALID,96.0017,VALID,0,VALID,20.1303,VALID,339,VALID,0.823047,
2012-04-06, 00:49:04,VALID,919.642,VALID,0,VALID,96.0855,VALID,0,VALID,20.1693,VALID,339,VALID,0.425391,
2012-04-06, 00:50:04,VALID,919.621,VALID,0,VALID,96.0932,VALID,0,VALID,20.1693,VALID,12,VALID,0.916406,
2012-04-06, 00:51:04,VALID,919.611,VALID,0,VALID,96.0169,VALID,0,VALID,20.1693,VALID,15,VALID,1.07656,
2012-04-06, 00:52:04,VALID,919.561,VALID,0,VALID,96.055,VALID,0,VALID,20.1903,VALID,352,VALID,1.11367,
2012-04-06, 00:53:04,VALID,919.54,VALID,0,VALID,95.9788,VALID,0,VALID,20.1303,VALID,15,VALID,1.54141,
2012-04-06, 00:54:04,VALID,919.513,VALID,0,VALID,96.055,VALID,0,VALID,20.1288,VALID,337,VALID,1.32656,
2012-04-06, 00:55:04,VALID,919.47,VALID,0,VALID,95.9331,VALID,0,VALID,20.1108,VALID,345,VALID,1.47031,
2012-04-06, 00:56:04,VALID,919.487,VALID,0,VALID,95.9026,VALID,0,VALID,20.0508,VALID,341,VALID,0.881641,
2012-04-06, 00:57:04,VALID,919.455,VALID,0,VALID,95.9864,VALID,0,VALID,20.0703,VALID,341,VALID,0.642187,
2012-04-06, 00:58:04,VALID,919.423,VALID,0,VALID,95.9712,VALID,0.107441,VALID,20.0508,VALID,341,VALID,0.643359,
2012-04-06, 00:59:04,VALID,919.434,VALID,0,VALID,95.9712,VALID,0,VALID,20.0718,VALID,341,VALID,0.864844,
2012-04-06, 01:00:04,VALID,919.37,VALID,0,VALID,96.0322,VALID,0,VALID,20.0718,VALID,341,VALID,1.08984,
2012-04-06, 01:01:04,VALID,919.388,VALID,0,VALID,96.0322,VALID,0,VALID,20.0718,VALID,356,VALID,1.12383,
2012-04-06, 01:02:04,VALID,919.399,VALID,0,VALID,96.0322,VALID,0,VALID,20.0718,VALID,353,VALID,0.890234,
2012-04-06, 01:03:04,VALID,919.419,VALID,0,VALID,96.0779,VALID,0,VALID,20.0508,VALID,353,VALID,1.00312,
2012-04-06, 01:04:04,VALID,919.419,VALID,0,VALID,95.9712,VALID,0.107441,VALID,20.0118,VALID,27,VALID,1.82617,
2012-04-06, 01:05:04,VALID,919.445,VALID,0,VALID,95.9788,VALID,0.107441,VALID,19.9923,VALID,9,VALID,2.09375,
2012-04-06, 01:06:04,VALID,919.41,VALID,0,VALID,96.0474,VALID,0,VALID,19.9743,VALID,350,VALID,1.37148,
2012-04-06, 01:07:04,VALID,919.43,VALID,0,VALID,96.0703,VALID,0,VALID,19.9533,VALID,15,VALID,2.03867,
2012-04-06, 01:08:04,VALID,919.421,VALID,0,VALID,96.0932,VALID,0.107441,VALID,19.9338,VALID,15,VALID,1.73555,
2012-04-06, 01:09:04,VALID,919.414,VALID,0,VALID,96.1313,VALID,0,VALID,19.9158,VALID,21,VALID,1.86523,
2012-04-06, 01:10:04,VALID,919.421,VALID,0,VALID,96.1999,VALID,0,VALID,19.8768,VALID,16,VALID,1.99414,
2012-04-06, 01:11:04,VALID,919.37,VALID,0,VALID,96.2837,VALID,0,VALID,19.8768,VALID,12,VALID,1.4168,
2012-04-06, 01:12:04,VALID,919.371,VALID,0,VALID,96.3676,VALID,0,VALID,19.8768,VALID,339,VALID,1.75547,
2012-04-06, 01:13:04,VALID,919.357,VALID,0,VALID,96.3905,VALID,0,VALID,19.8378,VALID,346,VALID,0.902734,
2012-04-06, 01:14:04,VALID,919.318,VALID,0,VALID,96.4362,VALID,0,VALID,19.8573,VALID,346,VALID,0.642187,
2012-04-06, 01:15:04,VALID,919.328,VALID,0,VALID,96.4972,VALID,0,VALID,19.8768,VALID,350,VALID,0.623438,
2012-04-06, 01:16:04,VALID,919.318,VALID,0,VALID,96.5201,VALID,0,VALID,19.9173,VALID,354,VALID,1.08477,
2012-04-06, 01:17:04,VALID,919.257,VALID,0,VALID,96.3829,VALID,0,VALID,19.8768,VALID,9,VALID,0.837109,
2012-04-06, 01:18:04,VALID,919.241,VALID,0,VALID,96.3829,VALID,0,VALID,19.8963,VALID,9,VALID,0.874219,
2012-04-06, 01:19:04,VALID,919.195,VALID,0,VALID,96.3676,VALID,0,VALID,19.9173,VALID,9,VALID,0.702734,
2012-04-06, 01:20:04,VALID,919.211,VALID,0,VALID,96.2609,VALID,0,VALID,19.9158,VALID,9,VALID,0.730859,
2012-04-06, 01:21:04,VALID,919.158,VALID,0,VALID,96.2456,VALID,0,VALID,19.8963,VALID,9,VALID,0.714453,
2012-04-06, 01:22:04,VALID,919.126,VALID,0,VALID,96.1694,VALID,0,VALID,19.9158,VALID,9,VALID,0.687891,
2012-04-06, 01:23:04,VALID,919.108,VALID,0,VALID,96.116,VALID,0,VALID,19.9158,VALID,9,VALID,0.882422,
2012-04-06, 01:24:04,VALID,919.136,VALID,0,VALID,96.0627,VALID,0,VALID,19.9143,VALID,9,VALID,0.633984,
2012-04-06, 01:25:04,VALID,919.127,VALID,0,VALID,95.9559,VALID,0,VALID,19.9548,VALID,345,VALID,0.477344,
2012-04-06, 01:26:04,VALID,919.142,VALID,0,VALID,95.9102,VALID,0,VALID,19.9338,VALID,345,VALID,0.111328,
2012-04-06, 01:27:04,VALID,919.167,VALID,0,VALID,95.834,VALID,0,VALID,19.9533,VALID,345,VALID,0.377734,
2012-04-06, 01:28:04,VALID,919.137,VALID,0,VALID,95.7958,VALID,0,VALID,19.9728,VALID,345,VALID,0.351953,
2012-04-06, 01:29:04,VALID,919.093,VALID,0,VALID,95.7425,VALID,0.107441,VALID,19.9728,VALID,345,VALID,0.0464844,
2012-04-06, 01:30:04,VALID,919.063,VALID,0,VALID,95.7272,VALID,0,VALID,19.9728,VALID,345,VALID,0.236328,
2012-04-06, 01:31:04,VALID,919.065,VALID,0,VALID,95.6662,VALID,0,VALID,19.9728,VALID,345,VALID,0.473047,
2012-04-06, 01:32:04,VALID,919.051,VALID,0,VALID,95.5976,VALID,0,VALID,19.9728,VALID,345,VALID,0.306641,
2012-04-06, 01:33:04,VALID,919.059,VALID,0,VALID,95.5824,VALID,0.107441,VALID,19.9533,VALID,345,VALID,0.525,
2012-04-06, 01:34:04,VALID,919.061,VALID,0,VALID,95.5671,VALID,0,VALID,19.9128,VALID,345,VALID,0.564062,
2012-04-06, 01:35:04,VALID,919.064,VALID,0,VALID,95.5595,VALID,0.107441,VALID,19.9158,VALID,345,VALID,0.675,
2012-04-06, 01:36:04,VALID,919.05,VALID,0,VALID,95.5443,VALID,0,VALID,19.8558,VALID,345,VALID,0.31875,
2012-04-06, 01:37:04,VALID,919.041,VALID,0,VALID,95.5595,VALID,0.107441,VALID,19.8558,VALID,345,VALID,0.562891,
2012-04-06, 01:38:04,VALID,918.993,VALID,0,VALID,95.529,VALID,0.107441,VALID,19.8363,VALID,345,VALID,0.0304688,
2012-04-06, 01:39:04,VALID,918.995,VALID,0,VALID,95.5214,VALID,0,VALID,19.8183,VALID,345,VALID,0,
2012-04-06, 01:40:04,VALID,918.96,VALID,0,VALID,95.529,VALID,0,VALID,19.8378,VALID,345,VALID,0.462109,
2012-04-06, 01:41:04,VALID,918.946,VALID,0,VALID,95.4528,VALID,0,VALID,19.8003,VALID,345,VALID,0.287891,
2012-04-06, 01:42:04,VALID,918.897,VALID,0,VALID,95.5214,VALID,0,VALID,19.8198,VALID,345,VALID,0.458594,
2012-04-06, 01:43:04,VALID,918.898,VALID,0,VALID,95.5595,VALID,0,VALID,19.8003,VALID,345,VALID,0.201562,
2012-04-06, 01:44:04,VALID,918.839,VALID,0,VALID,95.6053,VALID,0,VALID,19.7598,VALID,345,VALID,0.268359,
2012-04-06, 01:45:04,VALID,918.757,VALID,0,VALID,95.5595,VALID,0,VALID,19.7403,VALID,345,VALID,0.423828,
2012-04-06, 01:46:04,VALID,918.761,VALID,0,VALID,95.59,VALID,0,VALID,19.7013,VALID,345,VALID,0.400781,
2012-04-06, 01:47:04,VALID,918.756,VALID,0,VALID,95.6434,VALID,0,VALID,19.7028,VALID,345,VALID,0.623828,
2012-04-06, 01:48:04,VALID,918.722,VALID,0,VALID,95.6815,VALID,0,VALID,19.6623,VALID,345,VALID,0.423047,
2012-04-06, 01:49:04,VALID,918.715,VALID,0,VALID,95.7044,VALID,0,VALID,19.6638,VALID,345,VALID,0.106641,
2012-04-06, 01:50:04,VALID,918.675,VALID,0,VALID,95.6815,VALID,0,VALID,19.6428,VALID,345,VALID,0,
2012-04-06, 01:51:04,VALID,918.694,VALID,0,VALID,95.7501,VALID,0,VALID,19.6428,VALID,345,VALID,0,
2012-04-06, 01:52:04,VALID,918.67,VALID,0,VALID,95.8035,VALID,0,VALID,19.6428,VALID,345,VALID,0,
2012-04-06, 01:53:04,VALID,918.693,VALID,0,VALID,95.8416,VALID,0,VALID,19.6638,VALID,345,VALID,0,
2012-04-06, 01:54:04,VALID,918.648,VALID,0,VALID,95.8721,VALID,0,VALID,19.6413,VALID,345,VALID,0,
2012-04-06, 01:55:04,VALID,918.635,VALID,0,VALID,95.7425,VALID,0,VALID,19.6023,VALID,345,VALID,0,
2012-04-06, 01:56:04,VALID,918.604,VALID,0,VALID,95.5443,VALID,0,VALID,19.5453,VALID,345,VALID,0.00507812,
2012-04-06, 01:57:04,VALID,918.584,VALID,0,VALID,95.5443,VALID,0,VALID,19.4658,VALID,345,VALID,0.00585938,
2012-04-06, 01:58:04,VALID,918.577,VALID,0,VALID,95.6129,VALID,0,VALID,19.4868,VALID,345,VALID,0,
2012-04-06, 01:59:04,VALID,918.551,VALID,0,VALID,95.6815,VALID,0,VALID,19.4463,VALID,345,VALID,0.0101562,
2012-04-06, 02:00:04,VALID,918.538,VALID,0,VALID,95.8721,VALID,0,VALID,19.4853,VALID,345,VALID,0.274609,
2012-04-06, 02:01:04,VALID,918.566,VALID,0,VALID,95.9102,VALID,0,VALID,19.5063,VALID,345,VALID,0,
2012-04-06, 02:02:04,VALID,918.56,VALID,0,VALID,95.7806,VALID,0,VALID,19.4268,VALID,345,VALID,0,
2012-04-06, 02:03:04,VALID,918.553,VALID,0,VALID,95.7425,VALID,0,VALID,19.3893,VALID,345,VALID,0.408594,
2012-04-06, 02:04:04,VALID,918.539,VALID,0,VALID,95.6815,VALID,0,VALID,19.3308,VALID,345,VALID,0.551172,
2012-04-06, 02:05:04,VALID,918.543,VALID,0,VALID,95.8492,VALID,0,VALID,19.2918,VALID,345,VALID,0.726563,
2012-04-06, 02:06:04,VALID,918.521,VALID,0,VALID,96.0398,VALID,0,VALID,19.2709,VALID,345,VALID,0.553516,
2012-04-06, 02:07:04,VALID,918.534,VALID,0,VALID,96.177,VALID,0,VALID,19.3113,VALID,345,VALID,0.185156,
2012-04-06, 02:08:04,VALID,918.535,VALID,0,VALID,96.2456,VALID,0,VALID,19.2904,VALID,345,VALID,0,
2012-04-06, 02:09:04,VALID,918.518,VALID,0,VALID,96.3066,VALID,0,VALID,19.3308,VALID,345,VALID,0.257813,
2012-04-06, 02:10:04,VALID,918.517,VALID,0,VALID,96.3295,VALID,0,VALID,19.3308,VALID,345,VALID,0.442578,
2012-04-06, 02:11:04,VALID,918.499,VALID,0,VALID,96.3676,VALID,0,VALID,19.3308,VALID,345,VALID,0.296875,
2012-04-06, 02:12:04,VALID,918.5,VALID,0,VALID,96.3905,VALID,0,VALID,19.3113,VALID,345,VALID,0.610937,
2012-04-06, 02:13:04,VALID,918.462,VALID,0,VALID,96.4057,VALID,0,VALID,19.2918,VALID,345,VALID,0.468359,
2012-04-06, 02:14:04,VALID,918.432,VALID,0,VALID,96.4515,VALID,0,VALID,19.2918,VALID,345,VALID,0,
2012-04-06, 02:15:04,VALID,918.422,VALID,0,VALID,96.5124,VALID,0,VALID,19.2918,VALID,345,VALID,0,
2012-04-06, 02:16:04,VALID,918.432,VALID,0,VALID,96.5582,VALID,0,VALID,19.2918,VALID,345,VALID,0,
2012-04-06, 02:17:04,VALID,918.364,VALID,0,VALID,96.5887,VALID,0,VALID,19.2709,VALID,345,VALID,0,
2012-04-06, 02:18:04,VALID,918.318,VALID,0,VALID,96.6649,VALID,0,VALID,19.2918,VALID,345,VALID,0,
2012-04-06, 02:19:04,VALID,918.324,VALID,0,VALID,96.6954,VALID,0,VALID,19.2918,VALID,345,VALID,0,
2012-04-06, 02:20:04,VALID,918.306,VALID,0,VALID,96.7259,VALID,0,VALID,19.3323,VALID,345,VALID,0,
2012-04-06, 02:21:04,VALID,918.286,VALID,0,VALID,96.6954,VALID,0,VALID,19.2918,VALID,345,VALID,0,
2012-04-06, 02:22:04,VALID,918.253,VALID,0,VALID,96.3829,VALID,0,VALID,19.1944,VALID,345,VALID,0,
2012-04-06, 02:23:04,VALID,918.236,VALID,0,VALID,96.5201,VALID,0,VALID,19.1554,VALID,345,VALID,0,
2012-04-06, 02:24:04,VALID,918.215,VALID,0,VALID,96.5201,VALID,0,VALID,19.0774,VALID,345,VALID,0,
2012-04-06, 02:25:04,VALID,918.227,VALID,0,VALID,96.3981,VALID,0,VALID,18.998,VALID,345,VALID,0,
2012-04-06, 02:26:04,VALID,918.205,VALID,0,VALID,96.36,VALID,0,VALID,18.9814,VALID,345,VALID,0,
2012-04-06, 02:27:04,VALID,918.222,VALID,0,VALID,96.4133,VALID,0,VALID,18.9214,VALID,345,VALID,0,
2012-04-06, 02:28:04,VALID,918.193,VALID,0,VALID,96.5048,VALID,0,VALID,18.9214,VALID,345,VALID,0,
2012-04-06, 02:29:04,VALID,918.17,VALID,0,VALID,96.4438,VALID,0,VALID,18.8824,VALID,345,VALID,0,
2012-04-06, 02:30:04,VALID,918.146,VALID,0,VALID,96.4819,VALID,0,VALID,18.8824,VALID,345,VALID,0,
2012-04-06, 02:31:04,VALID,918.123,VALID,0,VALID,96.4896,VALID,0,VALID,18.8629,VALID,345,VALID,0,
2012-04-06, 02:32:04,VALID,918.113,VALID,0,VALID,96.3981,VALID,0,VALID,18.785,VALID,345,VALID,0.932813,
2012-04-06, 02:33:04,VALID,918.069,VALID,0,VALID,96.36,VALID,0,VALID,18.6861,VALID,25,VALID,1.33047,
2012-04-06, 02:34:04,VALID,918.107,VALID,0,VALID,96.4362,VALID,0,VALID,18.6499,VALID,31,VALID,1.0918,
2012-04-06, 02:35:04,VALID,918.126,VALID,0,VALID,96.5582,VALID,0,VALID,18.6095,VALID,31,VALID,0.504297,
2012-04-06, 02:36:04,VALID,918.111,VALID,0,VALID,96.5963,VALID,0,VALID,18.5302,VALID,31,VALID,0.363672,
2012-04-06, 02:37:04,VALID,918.102,VALID,0,VALID,96.7793,VALID,0,VALID,18.5316,VALID,31,VALID,0.285547,
2012-04-06, 02:38:04,VALID,918.097,VALID,0,VALID,96.8707,VALID,0,VALID,18.5511,VALID,31,VALID,0,
2012-04-06, 02:39:04,VALID,918.082,VALID,0,VALID,96.9927,VALID,0,VALID,18.59,VALID,31,VALID,0,
2012-04-06, 02:40:04,VALID,918.062,VALID,0,VALID,97.0918,VALID,0,VALID,18.6485,VALID,31,VALID,0,
2012-04-06, 02:41:04,VALID,918.06,VALID,0,VALID,97.1528,VALID,0.107441,VALID,18.707,VALID,31,VALID,0.078125,
2012-04-06, 02:42:04,VALID,918.056,VALID,0,VALID,97.1986,VALID,0,VALID,18.7655,VALID,31,VALID,0,
2012-04-06, 02:43:04,VALID,918.042,VALID,0,VALID,97.229,VALID,0,VALID,18.8839,VALID,31,VALID,0.158594,
2012-04-06, 02:44:04,VALID,918.033,VALID,0,VALID,97.2367,VALID,0,VALID,18.9424,VALID,31,VALID,0.380469,
2012-04-06, 02:45:04,VALID,918.024,VALID,0,VALID,97.2367,VALID,0,VALID,18.9409,VALID,31,VALID,0.367188,
2012-04-06, 02:46:04,VALID,918.025,VALID,0,VALID,97.1681,VALID,0,VALID,18.9409,VALID,31,VALID,0.330859,
2012-04-06, 02:47:04,VALID,917.995,VALID,0,VALID,97.1376,VALID,0,VALID,18.9409,VALID,31,VALID,0,
2012-04-06, 02:48:04,VALID,917.942,VALID,0,VALID,97.0766,VALID,0,VALID,18.9214,VALID,31,VALID,0,
2012-04-06, 02:49:04,VALID,917.938,VALID,0,VALID,97.069,VALID,0,VALID,18.9034,VALID,31,VALID,0,
2012-04-06, 02:50:04,VALID,917.929,VALID,0,VALID,97.1147,VALID,0.107441,VALID,18.8615,VALID,31,VALID,0.00195313,
2012-04-06, 02:51:04,VALID,917.929,VALID,0,VALID,97.0994,VALID,0,VALID,18.8629,VALID,31,VALID,0.182812,
2012-04-06, 02:52:04,VALID,917.916,VALID,0,VALID,97.069,VALID,0,VALID,18.8434,VALID,31,VALID,0.366016,
2012-04-06, 02:53:04,VALID,917.918,VALID,0,VALID,97.1223,VALID,0,VALID,18.824,VALID,31,VALID,0.227734,
2012-04-06, 02:54:04,VALID,917.908,VALID,0,VALID,97.1528,VALID,0,VALID,18.824,VALID,31,VALID,0,
2012-04-06, 02:55:04,VALID,917.934,VALID,0,VALID,97.1909,VALID,0,VALID,18.8434,VALID,31,VALID,0,
2012-04-06, 02:56:04,VALID,917.961,VALID,0,VALID,97.0385,VALID,0,VALID,18.8045,VALID,31,VALID,0,
2012-04-06, 02:57:04,VALID,917.963,VALID,0,VALID,96.8936,VALID,0,VALID,18.6875,VALID,31,VALID,0,
2012-04-06, 02:58:04,VALID,917.933,VALID,0,VALID,96.9089,VALID,0,VALID,18.629,VALID,31,VALID,0,
2012-04-06, 02:59:04,VALID,917.903,VALID,0,VALID,97.1299,VALID,0,VALID,18.629,VALID,31,VALID,0,
2012-04-06, 03:00:04,VALID,917.889,VALID,0,VALID,97.229,VALID,0,VALID,18.6875,VALID,31,VALID,0,
2012-04-06, 03:01:04,VALID,917.876,VALID,0,VALID,97.1071,VALID,0.107441,VALID,18.6485,VALID,31,VALID,0,
2012-04-06, 03:02:04,VALID,917.908,VALID,0,VALID,97.1223,VALID,0,VALID,18.6095,VALID,31,VALID,0,
2012-04-06, 03:03:04,VALID,917.898,VALID,0,VALID,97.1528,VALID,0,VALID,18.59,VALID,31,VALID,0,
2012-04-06, 03:04:04,VALID,917.868,VALID,0,VALID,97.0842,VALID,0,VALID,18.5705,VALID,31,VALID,0.248437,
2012-04-06, 03:05:04,VALID,917.87,VALID,0,VALID,96.9241,VALID,0,VALID,18.4536,VALID,31,VALID,0.377344,
2012-04-06, 03:06:04,VALID,917.849,VALID,0,VALID,97.069,VALID,0,VALID,18.3951,VALID,31,VALID,0.377344,
2012-04-06, 03:07:04,VALID,917.863,VALID,0,VALID,96.9851,VALID,0.107441,VALID,18.3756,VALID,31,VALID,0.248437,
2012-04-06, 03:08:04,VALID,917.872,VALID,0,VALID,97.2367,VALID,0,VALID,18.3951,VALID,31,VALID,0.530078,
2012-04-06, 03:09:04,VALID,917.882,VALID,0,VALID,97.3586,VALID,0,VALID,18.4731,VALID,31,VALID,0.215625,
2012-04-06, 03:10:04,VALID,917.863,VALID,0,VALID,97.3663,VALID,0,VALID,18.4926,VALID,31,VALID,0,
2012-04-06, 03:11:04,VALID,917.85,VALID,0,VALID,97.3815,VALID,0,VALID,18.5511,VALID,31,VALID,0,
2012-04-06, 03:12:04,VALID,917.818,VALID,0,VALID,97.3586,VALID,0.107441,VALID,18.6095,VALID,31,VALID,0.040625,
2012-04-06, 03:13:04,VALID,917.813,VALID,0,VALID,97.3739,VALID,0,VALID,18.6095,VALID,31,VALID,0,
2012-04-06, 03:14:04,VALID,917.769,VALID,0,VALID,97.351,VALID,0,VALID,18.6081,VALID,31,VALID,0,
2012-04-06, 03:15:04,VALID,917.793,VALID,0,VALID,97.351,VALID,0,VALID,18.629,VALID,31,VALID,0,
2012-04-06, 03:16:04,VALID,917.789,VALID,0,VALID,97.3663,VALID,0,VALID,18.6875,VALID,31,VALID,0.129688,
2012-04-06, 03:17:04,VALID,917.807,VALID,0,VALID,97.412,VALID,0,VALID,18.8045,VALID,248,VALID,0.93125,
2012-04-06, 03:18:04,VALID,917.795,VALID,0,VALID,97.412,VALID,0,VALID,18.9034,VALID,248,VALID,0.405469,
2012-04-06, 03:19:04,VALID,917.762,VALID,0,VALID,97.4501,VALID,0,VALID,19.0384,VALID,248,VALID,0.543359,
2012-04-06, 03:20:04,VALID,917.748,VALID,0,VALID,97.4577,VALID,0.107441,VALID,19.0579,VALID,248,VALID,0.280859,
2012-04-06, 03:21:04,VALID,917.72,VALID,0,VALID,97.4501,VALID,0,VALID,19.0969,VALID,248,VALID,0.0878906,
2012-04-06, 03:22:04,VALID,917.695,VALID,0,VALID,97.3434,VALID,0,VALID,18.824,VALID,248,VALID,0.637109,
2012-04-06, 03:23:04,VALID,917.658,VALID,0,VALID,96.9165,VALID,0,VALID,18.629,VALID,248,VALID,0.451953,
2012-04-06, 03:24:04,VALID,917.638,VALID,0,VALID,97.1757,VALID,0,VALID,18.5705,VALID,248,VALID,0.343359,
2012-04-06, 03:25:04,VALID,917.623,VALID,0,VALID,97.2062,VALID,0,VALID,18.5316,VALID,248,VALID,0,
2012-04-06, 03:26:04,VALID,917.628,VALID,0,VALID,97.3358,VALID,0,VALID,18.5511,VALID,248,VALID,0.0980469,
2012-04-06, 03:27:04,VALID,917.636,VALID,0,VALID,97.3891,VALID,0,VALID,18.59,VALID,248,VALID,0.0414063,
2012-04-06, 03:28:04,VALID,917.613,VALID,0,VALID,97.3968,VALID,0,VALID,18.6485,VALID,248,VALID,0,
2012-04-06, 03:29:04,VALID,917.551,VALID,0,VALID,97.4196,VALID,0,VALID,18.7084,VALID,248,VALID,0.202734,
2012-04-06, 03:30:04,VALID,917.509,VALID,0,VALID,97.4425,VALID,0,VALID,18.7279,VALID,248,VALID,0,
2012-04-06, 03:31:04,VALID,917.475,VALID,0,VALID,97.4425,VALID,0.107441,VALID,18.746,VALID,248,VALID,0,
2012-04-06, 03:32:04,VALID,917.475,VALID,0,VALID,97.4577,VALID,0,VALID,18.8254,VALID,248,VALID,0,
2012-04-06, 03:33:04,VALID,917.471,VALID,0,VALID,97.4501,VALID,0,VALID,18.8434,VALID,248,VALID,0,
2012-04-06, 03:34:04,VALID,917.454,VALID,0,VALID,97.4577,VALID,0,VALID,18.8434,VALID,248,VALID,0,
2012-04-06, 03:35:04,VALID,917.482,VALID,0,VALID,97.4349,VALID,0,VALID,18.824,VALID,248,VALID,0,
2012-04-06, 03:36:04,VALID,917.491,VALID,0,VALID,97.3968,VALID,0,VALID,18.746,VALID,248,VALID,0,
2012-04-06, 03:37:04,VALID,917.5,VALID,0,VALID,97.3968,VALID,0,VALID,18.6875,VALID,248,VALID,0,
2012-04-06, 03:38:04,VALID,917.467,VALID,0,VALID,97.3968,VALID,0,VALID,18.6875,VALID,248,VALID,0,
2012-04-06, 03:39:04,VALID,917.473,VALID,0,VALID,97.4044,VALID,0,VALID,18.6875,VALID,248,VALID,0,
2012-04-06, 03:40:04,VALID,917.452,VALID,0,VALID,97.3739,VALID,0,VALID,18.668,VALID,248,VALID,0.132813,
2012-04-06, 03:41:04,VALID,917.424,VALID,0,VALID,97.2062,VALID,0,VALID,18.5511,VALID,248,VALID,0.524609,
2012-04-06, 03:42:04,VALID,917.435,VALID,0,VALID,97.4044,VALID,0,VALID,18.6304,VALID,248,VALID,0.300781,
2012-04-06, 03:43:04,VALID,917.428,VALID,0,VALID,97.4196,VALID,0,VALID,18.7265,VALID,248,VALID,0.0761719,
2012-04-06, 03:44:04,VALID,917.421,VALID,0,VALID,97.4501,VALID,0,VALID,18.746,VALID,248,VALID,0.226953,
2012-04-06, 03:45:05,VALID,917.424,VALID,0,VALID,97.473,VALID,0,VALID,18.8644,VALID,248,VALID,0.213672,
2012-04-06, 03:46:05,VALID,917.391,VALID,0,VALID,97.4806,VALID,0,VALID,18.8839,VALID,248,VALID,0.198828,
2012-04-06, 03:47:05,VALID,917.414,VALID,0,VALID,97.4501,VALID,0,VALID,18.7655,VALID,248,VALID,0.292969,